Date,Time,Wetness (Wet Dry or Ice),Wind Speed (m/s),Temperature (C),Humidity (%),Pressure (mb),Radiation (W/m^2)
2017-11-12,04:05:00,DRY,1.75,12.20,33.5,778.50,0.8
2017-11-12,04:10:00,DRY,1.73,12.20,33.3,779.00,0.8
2017-11-12,04:15:00,DRY,2.55,12.25,34.5,779.00,1.1
2017-11-12,04:20:00,DRY,2.93,12.23,35.7,779.00,0.8
2017-11-12,04:25:00,DRY,3.15,12.35,36.0,779.00,1.1
2017-11-12,04:30:00,DRY,2.97,12.23,36.0,779.00,1.5
2017-11-12,04:35:00,DRY,3.00,12.35,36.0,778.50,1.1
2017-11-12,04:40:00,DRY,4.17,12.30,36.0,778.33,1.1
2017-11-12,04:45:00,DRY,3.15,12.15,36.0,779.00,1.6
2017-11-12,04:50:00,DRY,3.10,12.17,36.0,779.00,1.2
2017-11-12,04:55:00,DRY,3.30,12.15,36.0,779.00,0.9
2017-11-12,05:00:00,DRY,3.83,12.07,36.7,779.00,1.2
2017-11-12,05:05:00,DRY,3.95,12.10,38.0,779.00,1.4
2017-11-12,05:10:00,DRY,3.37,12.20,36.0,778.33,1.5
2017-11-12,05:15:00,DRY,2.90,12.20,36.5,778.00,1.6
2017-11-12,05:20:00,DRY,5.23,12.20,37.7,778.00,1.1
2017-11-12,05:25:00,DRY,4.30,12.20,38.5,778.00,0.9
2017-11-12,05:30:00,DRY,4.03,12.10,37.7,778.00,1.1
2017-11-12,05:35:00,DRY,3.75,11.95,40.5,778.50,0.9
2017-11-12,05:40:00,DRY,4.17,11.90,43.3,778.00,1.2
2017-11-12,05:45:00,DRY,3.85,12.05,42.0,778.00,1.0
2017-11-12,05:50:00,DRY,4.90,12.10,41.7,778.33,1.2
2017-11-12,05:55:00,DRY,3.80,12.10,42.5,778.50,1.6
2017-11-12,06:00:00,DRY,4.07,12.10,40.7,778.33,1.4
2017-11-12,06:05:00,DRY,5.15,12.00,39.5,779.00,1.4
2017-11-12,06:10:00,DRY,4.03,12.00,39.3,779.00,1.2
2017-11-12,06:15:00,DRY,3.55,11.90,39.0,779.00,1.2
2017-11-12,06:20:00,DRY,4.17,11.80,39.7,779.00,1.3
2017-11-12,06:25:00,DRY,4.35,11.85,39.5,779.00,1.6
2017-11-12,06:30:00,DRY,4.87,11.83,41.7,778.67,1.5
2017-11-12,06:35:00,DRY,3.60,11.85,42.0,778.50,1.9
2017-11-12,06:40:00,DRY,3.63,11.87,41.7,778.67,1.5
2017-11-12,06:45:00,DRY,4.20,11.85,42.5,779.00,1.6
2017-11-12,06:50:00,DRY,4.30,11.90,42.7,779.00,1.3
2017-11-12,06:55:00,DRY,3.55,11.90,42.0,778.50,1.0
2017-11-12,07:00:00,DRY,3.83,11.83,41.3,779.00,1.4
2017-11-12,07:05:00,DRY,3.25,11.80,42.0,779.00,1.1
2017-11-12,07:10:00,DRY,3.90,11.73,42.0,779.00,1.2
2017-11-12,07:15:00,DRY,3.95,11.70,42.5,779.00,1.3
2017-11-12,07:20:00,DRY,4.00,11.77,42.0,779.00,2.0
2017-11-12,07:25:00,DRY,3.70,11.95,41.5,779.00,2.6
2017-11-12,07:30:00,DRY,3.20,11.90,43.0,779.00,4.1
2017-11-12,07:35:00,DRY,3.80,11.95,43.0,779.00,6.5
2017-11-12,07:40:00,DRY,3.80,11.87,43.3,779.00,10.7
2017-11-12,07:45:00,DRY,3.90,12.10,41.5,779.00,13.1
2017-11-12,07:50:00,DRY,3.70,12.03,42.3,779.00,13.0
2017-11-12,07:55:00,DRY,4.20,12.10,42.0,779.00,16.9
2017-11-12,08:00:00,DRY,3.93,12.10,41.3,779.00,21.8
2017-11-12,08:05:00,DRY,4.10,12.20,41.0,779.00,30.4
2017-11-12,08:10:00,DRY,2.67,12.37,40.0,779.00,98.6
2017-11-12,08:15:00,DRY,2.85,12.45,40.0,779.00,124.1
2017-11-12,08:20:00,DRY,3.77,12.70,39.7,779.00,140.9
2017-11-12,08:25:00,DRY,3.85,12.80,39.0,779.00,159.2
2017-11-12,08:30:00,DRY,3.23,12.87,38.7,779.00,177.4
2017-11-12,08:35:00,DRY,2.90,13.00,37.5,779.00,194.6
2017-11-12,08:40:00,DRY,2.13,13.13,36.3,779.00,213.0
2017-11-12,08:45:00,DRY,2.10,13.30,34.5,779.00,233.4
2017-11-12,08:50:00,DRY,2.47,13.43,34.0,779.00,251.8
2017-11-12,08:55:00,DRY,2.30,13.35,35.0,779.00,271.6
2017-11-12,09:00:00,DRY,1.47,13.57,35.3,779.00,292.7
2017-11-12,09:05:00,DRY,2.15,13.65,36.0,779.00,310.5
2017-11-12,09:10:00,DRY,2.00,13.77,35.0,779.00,329.0
2017-11-12,09:15:00,DRY,2.75,13.80,35.5,779.00,347.1
2017-11-12,09:20:00,DRY,1.37,13.80,36.0,779.00,365.3
2017-11-12,09:25:00,DRY,1.30,14.15,35.5,779.00,377.8
2017-11-12,09:30:00,DRY,1.50,14.30,34.0,779.00,398.8
2017-11-12,09:35:00,DRY,0.75,14.45,34.0,779.00,416.5
2017-11-12,09:40:00,DRY,1.57,14.27,34.3,779.00,433.5
2017-11-12,09:45:00,DRY,1.05,14.50,34.0,779.00,448.0
2017-11-12,09:50:00,DRY,0.97,14.73,34.0,779.00,463.8
2017-11-12,09:55:00,DRY,1.95,14.65,33.0,779.00,479.9
2017-11-12,10:00:00,DRY,0.77,14.43,35.0,779.00,496.2
2017-11-12,10:05:00,DRY,1.50,14.30,34.0,779.00,512.5
2017-11-12,10:10:00,DRY,1.43,14.53,32.7,779.00,525.0
2017-11-12,10:15:00,DRY,1.80,14.55,32.5,779.00,558.2
2017-11-12,10:20:00,DRY,1.87,14.53,33.3,779.00,607.1
2017-11-12,10:25:00,DRY,0.85,14.50,32.0,779.00,277.0
2017-11-12,10:30:00,DRY,0.80,14.30,33.3,779.00,284.6
2017-11-12,10:35:00,DRY,0.50,14.60,33.5,779.00,519.5
2017-11-12,10:40:00,DRY,1.80,14.67,32.7,779.00,606.2
2017-11-12,10:45:00,DRY,1.60,14.65,33.0,779.00,614.5
2017-11-12,10:50:00,DRY,1.17,14.90,32.7,779.00,625.4
2017-11-12,10:55:00,DRY,1.40,14.85,31.0,779.00,635.5
2017-11-12,11:00:00,DRY,1.73,14.80,33.0,779.00,647.4
2017-11-12,11:05:00,DRY,1.20,14.40,36.5,779.00,657.1
2017-11-12,11:10:00,DRY,1.13,13.97,37.0,779.00,665.4
2017-11-12,11:15:00,DRY,0.70,14.15,36.5,779.00,674.9
2017-11-12,11:20:00,DRY,1.47,14.10,36.3,779.00,689.1
2017-11-12,11:25:00,DRY,1.50,13.90,37.0,779.00,703.0
2017-11-12,11:30:00,DRY,0.97,14.00,37.3,779.00,704.7
2017-11-12,11:35:00,DRY,1.35,14.05,37.5,779.00,702.9
2017-11-12,11:40:00,DRY,1.67,13.97,36.7,779.00,689.7
2017-11-12,11:45:00,DRY,1.60,14.25,37.5,779.00,724.2
2017-11-12,11:50:00,DRY,1.43,14.27,37.7,779.00,729.0
2017-11-12,11:55:00,DRY,1.40,14.30,40.5,779.00,730.2
2017-11-12,12:00:00,DRY,1.77,14.20,39.7,779.00,740.6
2017-11-12,12:05:00,DRY,1.35,14.60,40.0,779.00,717.9
2017-11-12,12:10:00,DRY,1.73,14.57,37.3,779.00,747.1
2017-11-12,12:15:00,DRY,1.70,14.35,39.5,779.00,749.2
2017-11-12,12:20:00,DRY,1.87,14.30,38.3,779.00,753.5
2017-11-12,12:25:00,DRY,1.20,14.45,37.5,779.00,755.8
2017-11-12,12:30:00,DRY,1.50,14.20,38.0,779.00,759.9
2017-11-12,12:35:00,DRY,1.50,14.15,39.0,778.50,763.4
2017-11-12,12:40:00,DRY,1.23,14.57,39.3,779.00,762.4
2017-11-12,12:45:00,DRY,1.60,14.45,41.0,779.00,762.0
2017-11-12,12:50:00,DRY,1.17,14.43,38.7,778.67,763.1
2017-11-12,12:55:00,DRY,1.20,14.15,40.5,778.00,763.5
2017-11-12,13:00:00,DRY,1.10,14.30,40.3,778.33,764.5
2017-11-12,13:05:00,DRY,2.15,14.30,40.5,778.00,762.4
2017-11-12,13:10:00,DRY,1.97,14.83,40.3,778.00,762.9
2017-11-12,13:15:00,DRY,0.90,15.05,39.0,778.00,741.5
2017-11-12,13:20:00,DRY,1.63,14.77,39.7,778.00,749.6
2017-11-12,13:25:00,DRY,1.80,14.35,41.0,778.00,751.1
2017-11-12,13:30:00,DRY,1.70,14.50,40.0,778.00,754.1
2017-11-12,13:35:00,DRY,1.00,14.40,41.0,778.00,737.0
2017-11-12,13:40:00,DRY,1.47,14.23,41.0,778.00,733.6
2017-11-12,13:45:00,DRY,1.35,14.55,40.5,778.00,748.4
2017-11-12,13:50:00,DRY,1.93,14.67,41.7,778.00,739.9
2017-11-12,13:55:00,DRY,1.40,14.60,42.0,778.00,747.0
2017-11-12,14:00:00,DRY,1.20,14.80,41.3,778.00,743.9
2017-11-12,14:05:00,DRY,1.35,15.00,40.0,778.00,741.7
2017-11-12,14:10:00,DRY,1.33,15.03,41.0,778.00,720.3
2017-11-12,14:15:00,DRY,2.10,15.00,41.0,778.00,718.2
2017-11-12,14:20:00,DRY,1.40,15.17,40.0,778.00,717.2
2017-11-12,14:25:00,DRY,2.20,15.25,39.0,778.00,709.6
2017-11-12,14:30:00,DRY,2.20,14.83,42.3,778.00,689.9
2017-11-12,14:35:00,DRY,1.55,14.60,42.5,778.00,671.8
2017-11-12,14:40:00,DRY,1.73,14.93,42.0,778.00,662.7
2017-11-12,14:45:00,DRY,1.05,14.70,42.5,778.00,656.9
2017-11-12,14:50:00,DRY,1.77,14.50,42.0,778.00,601.7
2017-11-12,14:55:00,DRY,1.50,14.75,44.0,778.00,589.0
2017-11-12,15:00:00,DRY,0.90,14.67,43.0,778.00,573.1
2017-11-12,15:05:00,DRY,1.30,14.50,42.5,778.00,581.5
2017-11-12,15:10:00,DRY,1.53,14.13,44.0,778.00,590.8
2017-11-12,15:15:00,DRY,1.35,13.95,45.5,778.00,596.5
2017-11-12,15:20:00,DRY,1.30,14.33,42.3,778.00,576.6
2017-11-12,15:25:00,DRY,1.75,14.25,43.0,778.00,570.5
2017-11-12,15:30:00,DRY,1.43,14.63,42.0,778.00,562.3
2017-11-12,15:35:00,DRY,1.30,14.30,43.5,778.00,552.0
2017-11-12,15:40:00,DRY,1.20,14.20,44.7,778.00,539.8
2017-11-12,15:45:00,DRY,1.50,13.95,46.0,778.00,524.2
2017-11-12,15:50:00,DRY,1.53,14.30,48.3,778.00,504.5
2017-11-12,15:55:00,DRY,1.45,13.80,49.0,778.00,473.8
2017-11-12,16:00:00,DRY,1.33,13.73,46.0,778.00,441.7
2017-11-12,16:05:00,DRY,1.45,13.55,47.0,778.00,423.6
2017-11-12,16:10:00,DRY,1.43,13.53,47.7,778.00,406.7
2017-11-12,16:15:00,DRY,1.00,13.30,48.5,778.00,401.6
2017-11-12,16:20:00,DRY,1.57,13.30,48.3,778.00,374.1
2017-11-12,16:25:00,DRY,1.60,13.50,49.5,778.00,363.4
2017-11-12,16:30:00,DRY,1.93,13.23,50.7,778.00,349.1
2017-11-12,16:35:00,DRY,1.65,13.00,50.5,778.00,327.6
2017-11-12,16:40:00,DRY,1.60,13.07,50.0,778.00,318.1
2017-11-12,16:45:00,DRY,1.75,13.45,49.0,778.00,298.5
2017-11-12,16:50:00,DRY,1.20,13.00,51.0,778.00,281.2
2017-11-12,16:55:00,DRY,1.50,12.80,52.0,778.00,260.1
2017-11-12,17:00:00,DRY,1.80,12.80,49.0,778.00,242.3
2017-11-12,17:05:00,DRY,1.50,13.05,48.5,778.00,215.4
2017-11-12,17:10:00,DRY,1.97,13.13,47.3,778.00,189.7
2017-11-12,17:15:00,DRY,1.80,13.10,46.5,778.00,171.8
2017-11-12,17:20:00,DRY,1.20,13.00,47.3,778.00,159.3
2017-11-12,17:25:00,DRY,1.45,12.70,48.0,778.00,156.1
2017-11-12,17:30:00,DRY,1.57,12.67,48.0,778.00,128.2
2017-11-12,17:35:00,DRY,1.50,12.55,48.0,778.00,108.4
2017-11-12,17:40:00,DRY,1.37,12.33,48.7,778.00,101.8
2017-11-12,17:45:00,DRY,1.20,12.15,48.5,778.00,88.0
2017-11-12,17:50:00,DRY,1.03,12.47,46.7,778.00,74.4
2017-11-12,17:55:00,DRY,1.05,12.55,46.0,778.00,58.1
2017-11-12,18:00:00,DRY,0.67,12.93,42.0,778.00,42.0
2017-11-12,18:05:00,DRY,0.40,12.95,40.5,778.00,26.9
2017-11-12,18:10:00,DRY,0.50,12.57,41.3,778.00,18.2
2017-11-12,18:15:00,DRY,0.50,12.25,40.5,778.00,10.2
2017-11-12,18:20:00,DRY,0.80,12.07,40.0,778.00,7.8
2017-11-12,18:25:00,DRY,0.35,11.90,41.0,778.00,4.7
2017-11-12,18:30:00,DRY,0.47,11.83,44.3,778.00,2.0
2017-11-12,18:35:00,DRY,0.75,11.70,43.5,778.00,0.8
2017-11-12,18:40:00,DRY,0.87,11.70,43.0,778.00,1.7
2017-11-12,18:45:00,DRY,1.05,11.60,41.5,778.00,1.4
2017-11-12,18:50:00,DRY,1.27,11.67,41.3,778.00,1.3
2017-11-12,18:55:00,DRY,1.25,11.50,42.0,778.00,0.9
2017-11-12,19:00:00,DRY,1.17,11.37,42.3,778.00,1.7
2017-11-12,19:05:00,DRY,1.60,11.20,42.0,778.00,0.4
2017-11-12,19:10:00,DRY,1.73,11.27,41.0,778.00,1.0
2017-11-12,19:15:00,DRY,1.00,11.15,42.0,778.50,0.8
2017-11-12,19:20:00,DRY,1.37,11.30,41.3,779.00,1.4
2017-11-12,19:25:00,DRY,1.25,11.15,42.0,779.00,1.4
2017-11-12,19:30:00,DRY,1.87,11.27,41.0,779.00,0.9
2017-11-12,19:35:00,DRY,2.00,11.30,41.5,779.00,1.6
2017-11-12,19:40:00,DRY,1.53,11.03,42.3,779.00,1.6
2017-11-12,19:45:00,DRY,1.85,10.85,43.0,779.00,0.5
2017-11-12,19:50:00,DRY,1.97,10.90,43.0,779.00,1.0
2017-11-12,19:55:00,DRY,2.20,10.95,43.0,779.00,0.6
2017-11-12,20:00:00,DRY,1.67,11.13,42.0,779.00,2.0
2017-11-12,20:05:00,DRY,1.65,11.15,42.0,779.00,0.8
2017-11-12,20:10:00,DRY,1.83,11.00,42.3,779.00,1.4
2017-11-12,20:15:00,DRY,2.00,11.00,42.5,779.00,1.1
2017-11-12,20:20:00,DRY,1.80,10.73,43.7,779.00,0.1
2017-11-12,20:25:00,DRY,2.20,10.60,43.5,779.00,0.8
2017-11-12,20:30:00,DRY,2.20,10.77,42.7,779.00,0.7
2017-11-12,20:35:00,DRY,1.70,10.90,42.5,779.00,1.0
2017-11-12,20:40:00,DRY,2.10,10.83,42.7,779.00,1.3
2017-11-12,20:45:00,DRY,2.25,11.00,42.5,779.00,1.4
2017-11-12,20:50:00,DRY,1.73,10.70,43.0,779.00,0.8
2017-11-12,20:55:00,DRY,1.70,10.65,42.5,779.00,1.4
2017-11-12,21:00:00,DRY,1.50,10.87,42.0,779.00,1.6
2017-11-12,21:05:00,DRY,1.40,10.90,42.0,779.00,1.1
2017-11-12,21:10:00,DRY,1.97,10.70,42.3,779.00,1.1
2017-11-12,21:15:00,DRY,2.25,10.55,43.0,779.00,1.1
2017-11-12,21:20:00,DRY,2.33,10.50,43.0,779.00,1.4
2017-11-12,21:25:00,DRY,2.50,10.70,43.0,779.00,0.8
2017-11-12,21:30:00,DRY,2.40,10.73,42.3,779.00,1.2
2017-11-12,21:35:00,DRY,2.40,10.70,43.5,779.00,1.3
2017-11-12,21:40:00,DRY,2.77,10.67,43.3,779.00,1.5
2017-11-12,21:45:00,DRY,2.50,10.55,44.0,779.00,1.4
2017-11-12,21:50:00,DRY,2.83,10.63,43.7,779.00,0.8
2017-11-12,21:55:00,DRY,3.15,10.60,43.0,779.00,1.8
2017-11-12,22:00:00,DRY,2.60,10.77,43.0,779.00,0.6
2017-11-12,22:05:00,DRY,2.55,10.80,43.0,779.00,1.2
2017-11-12,22:10:00,DRY,2.67,10.53,43.7,779.00,1.5
2017-11-12,22:15:00,DRY,3.25,10.55,44.0,779.00,1.1
2017-11-12,22:20:00,DRY,2.87,10.63,43.7,779.00,1.8
2017-11-12,22:25:00,DRY,2.90,10.60,44.0,779.00,0.9
2017-11-12,22:30:00,DRY,2.73,10.67,43.7,779.00,1.3
2017-11-12,22:35:00,DRY,2.40,10.75,44.0,779.00,1.0
2017-11-12,22:40:00,DRY,2.27,10.60,43.3,779.00,0.7
2017-11-12,22:45:00,DRY,2.45,10.60,43.0,779.00,1.1
2017-11-12,22:50:00,DRY,2.27,10.70,42.0,779.00,1.2
2017-11-12,22:55:00,DRY,2.40,10.55,42.0,779.00,1.5
2017-11-12,23:00:00,DRY,2.17,10.57,42.3,779.00,2.3
2017-11-12,23:05:00,DRY,2.05,10.70,42.0,779.00,1.8
2017-11-12,23:10:00,DRY,2.13,10.70,41.3,779.00,1.6
2017-11-12,23:15:00,DRY,1.60,10.60,41.5,779.00,0.8
2017-11-12,23:20:00,DRY,2.07,10.60,41.3,779.00,1.9
2017-11-12,23:25:00,DRY,1.65,10.60,42.0,779.00,1.8
2017-11-12,23:30:00,DRY,2.20,10.53,41.7,779.00,1.7
2017-11-12,23:35:00,DRY,2.40,10.50,41.0,779.00,1.6
2017-11-12,23:40:00,DRY,2.83,10.57,41.0,779.00,1.5
2017-11-12,23:45:00,DRY,2.50,10.55,41.5,779.00,0.6
2017-11-12,23:50:00,DRY,2.60,10.57,41.3,779.00,1.4
2017-11-12,23:55:00,DRY,1.90,10.45,42.0,779.00,0.8
2017-11-13,00:00:00,DRY,2.80,10.43,42.0,779.00,1.1
2017-11-13,00:05:00,DRY,3.25,10.55,42.0,779.00,1.4
2017-11-13,00:10:00,DRY,2.70,10.50,41.3,779.00,1.2
2017-11-13,00:15:00,DRY,3.15,10.50,41.0,779.00,1.4
2017-11-13,00:20:00,DRY,3.00,10.60,41.3,779.00,1.3
2017-11-13,00:25:00,DRY,3.35,10.75,40.5,779.00,1.4
2017-11-13,00:30:00,DRY,2.17,10.47,41.0,779.00,1.0
2017-11-13,00:35:00,DRY,2.40,10.35,40.5,779.00,1.7
2017-11-13,00:40:00,DRY,2.57,10.33,40.7,779.00,1.3
2017-11-13,00:45:00,DRY,2.70,10.50,40.5,779.00,0.4
2017-11-13,00:50:00,DRY,3.33,10.37,40.3,779.00,1.2
2017-11-13,00:55:00,DRY,3.50,10.50,40.5,779.00,0.8
2017-11-13,01:00:00,DRY,3.63,10.63,40.0,779.00,1.4
2017-11-13,01:05:00,DRY,3.70,10.65,40.0,779.00,1.1
2017-11-13,01:10:00,DRY,3.90,10.70,39.3,779.00,1.6
2017-11-13,01:15:00,DRY,2.95,10.70,39.0,779.00,1.1
2017-11-13,01:20:00,DRY,3.20,10.53,40.0,779.00,1.2
2017-11-13,01:25:00,DRY,2.65,10.50,39.5,779.00,1.2
2017-11-13,01:30:00,DRY,3.67,10.43,40.7,779.00,0.9
2017-11-13,01:35:00,DRY,3.10,10.55,39.0,779.00,1.2
2017-11-13,01:40:00,DRY,3.63,10.47,40.3,778.67,1.2
2017-11-13,01:45:00,DRY,2.80,10.35,40.5,779.00,1.5
2017-11-13,01:50:00,DRY,3.57,10.33,39.7,778.67,1.0
2017-11-13,01:55:00,DRY,2.85,10.40,38.0,778.50,0.7
2017-11-13,02:00:00,DRY,3.07,10.30,38.7,778.33,1.2
2017-11-13,02:05:00,DRY,2.95,10.40,37.5,778.50,1.4
2017-11-13,02:10:00,DRY,2.83,10.43,37.3,778.33,1.3
2017-11-13,02:15:00,DRY,3.35,10.40,37.0,778.00,1.2
2017-11-13,02:20:00,DRY,3.17,10.37,37.7,778.00,1.4
2017-11-13,02:25:00,DRY,3.30,10.30,38.0,778.00,1.6
2017-11-13,02:30:00,DRY,3.17,10.30,38.0,778.00,1.3
2017-11-13,02:35:00,DRY,3.20,10.30,38.0,778.00,1.3
2017-11-13,02:40:00,DRY,3.17,10.30,39.0,778.00,1.7
2017-11-13,02:45:00,DRY,2.25,10.25,40.0,778.00,2.0
2017-11-13,02:50:00,DRY,3.37,10.20,40.0,778.00,1.3
2017-11-13,02:55:00,DRY,3.35,10.30,40.0,778.00,0.9
2017-11-13,03:00:00,DRY,3.87,10.23,39.3,778.00,1.0
2017-11-13,03:05:00,DRY,3.35,10.35,39.5,778.00,1.5
2017-11-13,03:10:00,DRY,3.77,10.40,40.0,778.00,1.2
2017-11-13,03:15:00,DRY,4.05,10.25,41.0,778.00,1.1
2017-11-13,03:20:00,DRY,3.80,10.30,41.0,778.00,1.0
2017-11-13,03:25:00,DRY,3.25,10.25,41.0,778.00,0.7
2017-11-13,03:30:00,DRY,2.70,10.20,41.0,778.00,0.9
2017-11-13,03:35:00,DRY,2.70,10.00,42.0,778.00,1.3
2017-11-13,03:40:00,DRY,2.90,9.90,42.3,778.00,1.3
2017-11-13,03:45:00,DRY,2.70,10.05,41.0,778.00,0.6
2017-11-13,03:50:00,DRY,3.30,10.07,39.0,778.00,1.2
2017-11-13,03:55:00,DRY,2.90,10.00,37.0,778.00,0.8
2017-11-13,04:00:00,DRY,4.13,10.17,36.3,778.00,1.2
2017-11-13,04:05:00,DRY,3.35,10.25,36.0,778.00,1.2
2017-11-13,04:10:00,DRY,3.77,10.13,35.7,778.00,1.1
2017-11-13,04:15:00,DRY,3.50,10.15,34.5,778.00,1.3
2017-11-13,04:20:00,DRY,3.70,10.00,35.0,778.00,1.0
2017-11-13,04:25:00,DRY,2.75,9.95,35.5,778.00,0.7
2017-11-13,04:30:00,DRY,4.00,10.03,34.7,777.67,1.1
2017-11-13,04:35:00,DRY,4.10,10.10,33.0,777.50,1.2
2017-11-13,04:40:00,DRY,4.03,10.20,35.3,777.00,1.7
2017-11-13,04:45:00,DRY,4.10,10.30,38.0,777.00,1.9
2017-11-13,04:50:00,DRY,3.97,10.30,38.7,777.00,2.1
2017-11-13,04:55:00,DRY,3.40,10.30,39.0,777.50,2.5
2017-11-13,05:00:00,DRY,3.13,10.30,40.0,777.33,1.8
2017-11-13,05:05:00,DRY,3.10,10.35,40.0,778.00,0.7
2017-11-13,05:10:00,DRY,2.23,10.10,37.7,777.67,1.3
2017-11-13,05:15:00,DRY,2.40,9.90,36.5,778.00,1.6
2017-11-13,05:20:00,DRY,2.10,9.90,37.3,777.33,1.3
2017-11-13,05:25:00,DRY,3.20,10.10,39.5,777.00,1.4
2017-11-13,05:30:00,DRY,3.33,10.13,41.0,777.67,1.6
2017-11-13,05:35:00,DRY,2.25,10.10,42.0,777.00,1.2
2017-11-13,05:40:00,DRY,2.47,9.97,43.3,777.33,1.6
2017-11-13,05:45:00,DRY,2.80,10.00,44.0,777.00,0.9
2017-11-13,05:50:00,DRY,2.30,9.90,45.3,777.33,1.3
2017-11-13,05:55:00,DRY,2.80,9.90,45.0,778.00,1.6
2017-11-13,06:00:00,DRY,3.00,9.90,45.0,777.33,1.2
2017-11-13,06:05:00,DRY,2.60,9.85,46.0,777.50,1.1
2017-11-13,06:10:00,DRY,2.33,9.83,43.7,777.33,1.7
2017-11-13,06:15:00,DRY,2.35,9.90,41.5,777.50,1.4
2017-11-13,06:20:00,DRY,2.73,9.90,43.7,777.33,1.3
2017-11-13,06:25:00,DRY,2.65,9.85,46.0,778.00,2.3
2017-11-13,06:30:00,DRY,2.80,9.80,45.5,777.50,1.7
2017-11-13,06:35:00,DRY,3.00,9.75,45.5,777.50,1.3
2017-11-13,06:40:00,DRY,2.77,9.73,46.0,778.00,1.3
2017-11-13,06:45:00,DRY,2.30,9.50,47.5,777.00,0.8
2017-11-13,06:50:00,DRY,2.23,9.50,45.7,778.00,1.5
2017-11-13,06:55:00,DRY,2.10,9.55,44.5,778.00,1.4
2017-11-13,07:00:00,DRY,2.17,9.57,44.0,778.00,0.7
2017-11-13,07:05:00,DRY,2.10,9.55,43.0,778.00,0.5
2017-11-13,07:10:00,DRY,1.70,9.57,43.3,778.00,1.6
2017-11-13,07:15:00,DRY,2.50,9.25,44.0,778.00,1.0
2017-11-13,07:20:00,DRY,2.67,9.17,47.3,778.00,1.7
2017-11-13,07:25:00,DRY,2.45,9.10,49.5,778.00,4.0
2017-11-13,07:30:00,DRY,2.27,9.03,50.0,778.00,7.1
2017-11-13,07:35:00,DRY,2.90,9.10,48.5,778.00,10.1
2017-11-13,07:40:00,DRY,2.73,9.07,47.7,778.00,15.2
2017-11-13,07:45:00,DRY,2.25,9.15,46.0,778.00,21.1
2017-11-13,07:50:00,DRY,2.37,9.23,45.7,778.00,28.6
2017-11-13,07:55:00,DRY,2.70,9.40,44.5,778.00,37.8
2017-11-13,08:00:00,DRY,2.57,9.47,43.7,778.00,42.5
2017-11-13,08:05:00,DRY,2.45,9.70,42.5,778.00,50.0
2017-11-13,08:10:00,DRY,2.63,9.93,42.0,778.00,83.7
2017-11-13,08:15:00,DRY,2.80,10.00,41.5,778.00,106.6
2017-11-13,08:20:00,DRY,2.37,9.87,43.3,778.00,123.6
2017-11-13,08:25:00,DRY,2.70,10.15,42.0,778.00,138.9
2017-11-13,08:30:00,DRY,2.53,10.40,43.3,778.00,160.3
2017-11-13,08:35:00,DRY,2.10,10.35,43.0,778.00,177.2
2017-11-13,08:40:00,DRY,1.67,10.10,43.3,778.00,197.0
2017-11-13,08:45:00,DRY,1.80,10.20,42.5,778.00,164.1
2017-11-13,08:50:00,DRY,1.80,10.30,42.3,778.00,218.5
2017-11-13,08:55:00,DRY,2.15,10.25,44.0,778.00,244.2
2017-11-13,09:00:00,DRY,2.13,10.27,44.3,778.00,260.2
2017-11-13,09:05:00,DRY,2.45,10.35,45.0,778.00,270.8
2017-11-13,09:10:00,DRY,2.57,10.27,46.0,778.00,299.0
2017-11-13,09:15:00,DRY,2.20,10.35,45.0,778.00,341.9
2017-11-13,09:20:00,DRY,2.87,10.47,43.3,778.00,358.8
2017-11-13,09:25:00,DRY,2.30,10.65,43.0,778.00,379.6
2017-11-13,09:30:00,DRY,2.57,10.77,39.0,778.00,389.1
2017-11-13,09:35:00,DRY,2.70,10.75,40.0,778.00,406.0
2017-11-13,09:40:00,DRY,1.97,10.83,41.0,778.00,419.1
2017-11-13,09:45:00,DRY,2.90,10.90,40.5,778.00,424.8
2017-11-13,09:50:00,DRY,2.47,10.93,40.3,778.00,441.0
2017-11-13,09:55:00,DRY,3.15,10.90,40.0,778.00,456.8
2017-11-13,10:00:00,DRY,3.20,11.03,40.3,778.00,481.7
2017-11-13,10:05:00,DRY,2.50,11.15,40.0,778.00,498.9
2017-11-13,10:10:00,DRY,2.20,11.27,41.0,778.00,502.9
2017-11-13,10:15:00,DRY,1.75,11.35,38.0,778.00,517.3
2017-11-13,10:20:00,DRY,2.30,11.40,38.7,778.00,520.0
2017-11-13,10:25:00,DRY,2.75,11.45,36.5,778.00,512.2
2017-11-13,10:30:00,DRY,2.83,11.50,36.0,778.00,518.0
2017-11-13,10:35:00,DRY,3.10,11.60,36.5,778.00,529.0
2017-11-13,10:40:00,DRY,2.07,11.57,37.0,778.00,537.2
2017-11-13,10:45:00,DRY,2.10,11.60,39.5,778.00,542.2
2017-11-13,10:50:00,DRY,2.07,11.63,37.3,778.00,567.6
2017-11-13,10:55:00,DRY,2.60,11.70,35.5,778.00,576.1
2017-11-13,11:00:00,DRY,1.90,11.73,36.3,778.00,599.4
2017-11-13,11:05:00,DRY,1.70,11.90,36.0,778.00,636.8
2017-11-13,11:10:00,DRY,2.20,12.13,39.0,778.00,643.7
2017-11-13,11:15:00,DRY,2.95,11.90,38.5,778.00,645.8
2017-11-13,11:20:00,DRY,2.73,11.73,40.3,778.00,565.9
2017-11-13,11:25:00,DRY,2.40,11.85,38.5,778.00,575.1
2017-11-13,11:30:00,DRY,2.97,11.90,40.0,778.00,585.4
2017-11-13,11:35:00,DRY,1.20,11.90,39.0,778.00,630.0
2017-11-13,11:40:00,DRY,1.17,11.97,43.0,778.00,634.8
2017-11-13,11:45:00,DRY,1.55,12.15,40.0,778.00,645.8
2017-11-13,11:50:00,DRY,0.73,12.40,42.7,778.00,665.8
2017-11-13,11:55:00,DRY,0.85,12.55,41.5,778.00,690.4
2017-11-13,12:00:00,DRY,1.23,13.00,41.0,778.00,709.3
2017-11-13,12:05:00,DRY,1.30,12.80,41.0,778.00,716.2
2017-11-13,12:10:00,DRY,1.17,12.63,39.7,778.00,714.9
2017-11-13,12:15:00,DRY,0.85,12.75,38.5,778.00,683.5
2017-11-13,12:20:00,DRY,1.87,12.97,43.7,778.00,708.8
2017-11-13,12:25:00,DRY,1.00,12.70,44.0,778.00,710.5
2017-11-13,12:30:00,DRY,1.47,12.53,43.7,778.00,738.5
2017-11-13,12:35:00,DRY,1.65,12.65,43.5,778.00,727.0
2017-11-13,12:40:00,DRY,1.80,12.67,46.7,778.00,766.6
2017-11-13,12:45:00,DRY,1.40,12.65,45.0,778.00,753.2
2017-11-13,12:50:00,DRY,1.93,12.47,47.0,777.00,718.1
2017-11-13,12:55:00,DRY,1.95,12.15,47.0,777.00,716.2
2017-11-13,13:00:00,DRY,2.43,12.63,49.7,777.00,729.9
2017-11-13,13:05:00,DRY,2.75,12.65,48.5,777.00,713.8
2017-11-13,13:10:00,DRY,2.63,12.57,46.7,777.00,692.6
2017-11-13,13:15:00,DRY,3.30,12.55,48.5,777.00,665.3
2017-11-13,13:20:00,DRY,3.20,12.17,49.3,777.00,614.4
2017-11-13,13:25:00,DRY,2.80,12.20,44.5,777.00,557.8
2017-11-13,13:30:00,DRY,1.90,11.80,47.0,777.00,554.9
2017-11-13,13:35:00,DRY,2.50,12.20,48.0,777.00,625.0
2017-11-13,13:40:00,DRY,3.03,12.60,48.3,777.00,655.4
2017-11-13,13:45:00,DRY,1.65,12.25,40.5,777.00,682.7
2017-11-13,13:50:00,DRY,2.53,12.37,44.0,777.00,689.3
2017-11-13,13:55:00,DRY,2.10,12.45,41.0,777.00,669.6
2017-11-13,14:00:00,DRY,2.10,12.60,44.0,777.00,662.3
2017-11-13,14:05:00,DRY,2.65,12.55,42.0,777.00,672.7
2017-11-13,14:10:00,DRY,3.70,12.63,42.0,777.00,656.4
2017-11-13,14:15:00,DRY,2.65,12.25,40.5,777.00,632.6
2017-11-13,14:20:00,DRY,3.43,12.33,42.3,777.00,618.8
2017-11-13,14:25:00,DRY,3.10,12.15,43.0,777.00,596.3
2017-11-13,14:30:00,DRY,3.73,12.10,42.0,777.00,608.1
2017-11-13,14:35:00,DRY,3.35,12.15,44.5,777.00,588.4
2017-11-13,14:40:00,DRY,2.53,12.07,44.7,777.00,515.3
2017-11-13,14:45:00,DRY,3.50,11.95,46.5,776.50,479.6
2017-11-13,14:50:00,DRY,2.67,11.53,46.7,777.00,468.1
2017-11-13,14:55:00,DRY,2.50,11.55,45.0,777.00,476.9
2017-11-13,15:00:00,DRY,2.30,11.47,49.3,777.00,498.5
2017-11-13,15:05:00,DRY,2.90,11.65,51.0,776.50,510.4
2017-11-13,15:10:00,DRY,2.30,11.37,53.7,776.67,513.7
2017-11-13,15:15:00,DRY,2.80,11.35,53.5,776.50,504.5
2017-11-13,15:20:00,DRY,3.40,11.43,53.3,776.67,477.0
2017-11-13,15:25:00,DRY,3.30,11.35,53.5,776.50,467.0
2017-11-13,15:30:00,DRY,3.70,11.33,53.7,777.00,433.7
2017-11-13,15:35:00,DRY,4.35,11.05,51.0,776.00,407.2
2017-11-13,15:40:00,DRY,3.50,11.07,51.0,776.00,417.7
2017-11-13,15:45:00,DRY,4.10,11.10,51.5,776.00,410.9
2017-11-13,15:50:00,DRY,3.57,11.10,51.7,776.00,382.8
2017-11-13,15:55:00,DRY,3.80,11.05,49.5,776.00,345.4
2017-11-13,16:00:00,DRY,3.93,10.93,51.3,776.00,333.9
2017-11-13,16:05:00,DRY,4.05,10.85,51.0,776.00,312.8
2017-11-13,16:10:00,DRY,3.80,10.73,51.0,776.33,297.4
2017-11-13,16:15:00,DRY,3.75,10.65,50.5,776.00,282.1
2017-11-13,16:20:00,DRY,4.13,10.57,51.3,776.00,267.1
2017-11-13,16:25:00,DRY,4.10,10.50,52.0,776.00,252.2
2017-11-13,16:30:00,DRY,4.33,10.40,51.3,776.00,236.2
2017-11-13,16:35:00,DRY,5.20,10.30,51.0,776.00,223.4
2017-11-13,16:40:00,DRY,5.00,10.17,51.0,776.00,219.2
2017-11-13,16:45:00,DRY,3.45,10.10,50.5,776.00,211.6
2017-11-13,16:50:00,DRY,5.43,10.10,51.7,776.00,195.4
2017-11-13,16:55:00,DRY,4.65,10.05,51.5,776.00,174.9
2017-11-13,17:00:00,DRY,5.20,10.00,51.0,776.00,156.6
2017-11-13,17:05:00,DRY,4.65,9.95,51.0,776.00,137.9
2017-11-13,17:10:00,DRY,5.80,9.90,49.7,776.00,123.3
2017-11-13,17:15:00,DRY,5.80,9.80,51.0,776.00,113.0
2017-11-13,17:20:00,DRY,5.60,9.80,48.7,776.00,102.1
2017-11-13,17:25:00,DRY,6.75,9.75,50.5,776.00,93.0
2017-11-13,17:30:00,DRY,6.30,9.70,51.3,776.00,83.3
2017-11-13,17:35:00,DRY,5.70,9.55,53.0,776.00,72.2
2017-11-13,17:40:00,DRY,6.43,9.50,52.7,776.00,62.8
2017-11-13,17:45:00,DRY,6.55,9.50,50.5,776.00,51.9
2017-11-13,17:50:00,DRY,6.37,9.40,53.0,776.00,40.8
2017-11-13,17:55:00,DRY,7.45,9.30,53.5,776.00,30.5
2017-11-13,18:00:00,DRY,7.00,9.23,56.0,776.00,21.9
2017-11-13,18:05:00,DRY,6.85,9.10,57.5,776.00,15.0
2017-11-13,18:10:00,DRY,6.20,9.07,59.3,776.00,10.1
2017-11-13,18:15:00,DRY,7.25,8.95,61.0,776.00,6.0